This is the latest recevied weather packets stored in our database for station/object SV2RIM-2. If no packets are shown the sender has not sent any weather packets the latest 1 day(s).
| Time | Temp. | Humidity | Pressure | Rain* | Wind** | Luminosity | Snow |
|---|---|---|---|---|---|---|---|
| 1778017219 | 13.89° C | 46% | 1014.8 hPa | - | 1.34 m/s, 347° | - | - |
| 1778016619 | 14.44° C | 46% | 1014.7 hPa | - | 1.34 m/s, 349° | - | - |
| 1778016019 | 14.44° C | 45% | 1014.6 hPa | - | 1.34 m/s, 349° | - | - |
| 1778015419 | 14.44° C | 45% | 1014.5 hPa | - | 0.89 m/s, 322° | - | - |
| 1778014819 | 15.56° C | 43% | 1014.5 hPa | - | 0.89 m/s, 327° | - | - |
| 1778014219 | 15° C | 43% | 1014.4 hPa | - | 0.45 m/s, 277° | - | - |
| 1778013619 | 15° C | 43% | 1014.4 hPa | - | 0.89 m/s, 315° | - | - |
| 1778013019 | 15° C | 43% | 1014.3 hPa | - | 1.79 m/s, 348° | - | - |
| 1778012419 | 15.56° C | 42% | 1014.3 hPa | - | 1.34 m/s, 347° | - | - |
| 1778011819 | 16.11° C | 41% | 1014.1 hPa | - | 0.89 m/s, 284° | - | - |
| 1778011219 | 16.11° C | 40% | 1014.1 hPa | - | 0.45 m/s, 295° | - | - |
| 1778010619 | 16.67° C | 40% | 1013.9 hPa | - | 0 m/s | - | - |
| 1778010019 | 16.67° C | 39% | 1013.7 hPa | - | 2.24 m/s, 338° | - | - |
| 1778009419 | 17.22° C | 38% | 1013.5 hPa | - | 0.89 m/s, 348° | - | - |
| 1778008818 | 17.22° C | 38% | 1013.4 hPa | - | 2.24 m/s, 338° | - | - |
| 1778008219 | 17.78° C | 37% | 1013.2 hPa | - | 1.79 m/s, 354° | - | - |
| 1778007619 | 17.78° C | 36% | 1013.1 hPa | - | 1.79 m/s, 349° | - | - |
| 1778007019 | 17.78° C | 36% | 1012.9 hPa | - | 2.24 m/s, 339° | - | - |
| 1778006419 | 17.78° C | 37% | 1012.8 hPa | - | 2.68 m/s, 345° | - | - |
| 1778005819 | 17.78° C | 36% | 1012.7 hPa | - | 2.68 m/s, 315° | - | - |
| 1778005219 | 17.78° C | 35% | 1012.6 hPa | - | 2.68 m/s, 347° | - | - |
| 1778004619 | 18.33° C | 34% | 1012.4 hPa | - | 1.79 m/s, 320° | - | - |
| 1778004021 | 18.89° C | 33% | 1012.4 hPa | - | 1.79 m/s, 330° | - | - |
| 1778003419 | 18.89° C | 32% | 1012.2 hPa | - | 0.89 m/s, 306° | - | - |
| 1778002819 | 19.44° C | 31% | 1012.2 hPa | - | 1.79 m/s, 313° | - | - |
* Rain since midnight (hover to see other rain measurements)
** Current wind speed in m/s (hover to see current wind gust speed)